Regional Weather Roundup
Issued by NWS Upton, NY

Current Version | Previous Version | Text Only | Print | Product List | Glossary Off
Versions: 1 2 3 4 5 6 7 8 9 10 11 12 13 14 15 16 17 18 19 20 21 22 23 24 25 26 27 28 29 30 31 32 33 34 35 36 37 38 39 40 41 42 43 44 45 46 47 48

000
ASUS41 KOKX 271805
RWROKX

REGIONAL WEATHER ROUNDUP
NATIONAL WEATHER SERVICE NEW YORK NY
100 PM EST SAT DEC 27 2014

NOTE: "FAIR" INDICATES FEW OR NO CLOUDS BELOW 12,000 FEET WITH NO
SIGNIFICANT WEATHER AND/OR OBSTRUCTIONS TO VISIBILITY.

NYZ071-072-176-178-NJZ106-104-271900-
NEW YORK CITY METRO AREA


CITY           SKY/WX    TMP DP  RH WIND       PRES   REMARKS
CENTRAL PARK   SUNNY     53  31  42 CALM      30.22F
LAGUARDIA APRT MOSUNNY   53  33  46 CALM      30.20F
KENNEDY INTL   MOSUNNY   54  32  43 SW6       30.21F
NEWARK/LIBERTY PTSUNNY   56  33  42 SW5       30.20F
BRNX BOT. GARD   N/A     54  32  43 SW9       30.21F
TETERBORO      SUNNY     55  35  47 SW3       30.19F
$$

NYZ177-179-078>081-271900-
LONG ISLAND NEW YORK

CITY           SKY/WX    TMP DP  RH WIND       PRES   REMARKS
FARMINGDALE    SUNNY     54  34  46 S7        30.20F
ISLIP          MOSUNNY   53  33  46 VRB7      30.19F
SHIRLEY        SUNNY     53  34  48 S8        30.21F
WESTHAMPTON    SUNNY     53  35  50 S6        30.22F
MONTAUK POINT    N/A     51  36  56 W5        30.20F
$$

NYZ052-065-067-271900-
HUDSON VALLEY

CITY           SKY/WX    TMP DP  RH WIND       PRES   REMARKS
WHITE PLAINS   SUNNY     52  32  46 W3        30.18F
NEWBURGH       NOT AVBL
MONTGOMERY     SUNNY     53  34  48 NW5       30.18F
POUGHKEEPSIE   SUNNY     52  33  48 SW6       30.18F
ALBANY         CLOUDY    44  32  62 S5        30.18F
$$

NJZ001-105-106-008-010-013-015-019>022-104-271900-
NEW JERSEY

CITY           SKY/WX    TMP DP  RH WIND       PRES   REMARKS
NEWARK/LIBERTY PTSUNNY   56  33  42 SW5       30.20F
TETERBORO      SUNNY     55  35  47 SW3       30.19F
CALDWELL       SUNNY     53  33  46 VRB6      30.20F
MORRISTOWN     SUNNY     55  36  47 S3        30.20F
SOMERVILLE     SUNNY     55  32  41 VRB3      30.18F
SUSSEX         SUNNY     52  35  52 VRB3      30.19F
ANDOVER        NOT AVBL
TRENTON        SUNNY     56  32  40 N5        30.20F
MILLVILLE      SUNNY     58  33  39 NW3       30.23F
ATLANTIC CITY  SUNNY     57  29  34 SW3       30.22F
WRIGHTSTOWN    SUNNY     54  35  47 NW3       30.20F
TOMS RIVER     SUNNY     54  30  40 NW6       30.23F
BELMAR         SUNNY     55  34  44 W6        30.21F
$$

PAZ047>061-062-071-271900-
EASTERN PENNSYLVANIA

CITY           SKY/WX    TMP DP  RH WIND       PRES   REMARKS
PHILADELPHIA   MOSUNNY   53  34  48 W5        30.23F
ALLENTOWN      SUNNY     54  33  45 S7        30.19F
SCRANTON       SUNNY     50  31  48 W8        30.17F
$$

CTZ002-004>006-009-010-012-RIZ004-006-007-MAZ004-011-015-271900-
SOUTHERN NEW ENGLAND
 IN CT

CITY           SKY/WX    TMP DP  RH WIND       PRES   REMARKS
BRADLEY INTL   MOSUNNY   52  32  46 SE5       30.16F
HARTFORD       SUNNY     52  33  48 SW8       30.18F
DANBURY        SUNNY     51  31  46 SW10      30.19F
WTRBRY/OXFORD  MOSUNNY  N/A N/A N/A W7        30.18F
BRIDGEPORT     SUNNY     49  36  61 SW10      30.20F
MERIDEN        SUNNY     53  32  44 VRB3      30.18F
NEW HAVEN      MOSUNNY   51  36  56 S7        30.20F
CHESTER        FAIR      52  32  46 W7        30.18F
GROTON         SUNNY     48  39  71 SW9       30.18F
WILLIMANTIC    SUNNY     51  33  50 W7        30.17F

 IN RI

CITY           SKY/WX    TMP DP  RH WIND       PRES   REMARKS
PROVIDENCE     PTSUNNY   52  33  48 W10       30.17F
BLOCK ISLAND   SUNNY     50  36  57 W9        30.19F
WESTERLY       SUNNY     50  36  58 SW8       30.18F

 IN MA

CITY           SKY/WX    TMP DP  RH WIND       PRES   REMARKS
BOSTON         MOSUNNY   52  33  48 W7        30.14F
WORCESTER      SUNNY     46  33  60 W12       30.14F
WESTFIELD      SUNNY     53  33  46 NW9       30.16F
PROVINCETOWN   SUNNY     50  36  57 W8        30.17S
NANTUCKET      SUNNY     50  36  58 W13       30.17F
$$

ANZ330-335-338-340-345-350-353-355-271900-
COASTAL MARINE OBSERVATIONS


STATION/POSITION TIME  SKY/WX   TEMP    WIND        PRES    VSBY  WAVE
                                AIR SEA DIR/SP/G                  HT/PER
                 (UTC)          (F)     (DEG/KT/KT) (MB)    (MI)  (FT/S)
NY HARB ENTRANCE 1800            46 45  220/  4/  6 1023.6          3/15
4S FIRE IS       1800               47                N/A           3/14
20S FIRE ISLAND  1700            52 49              1024.3          3/15
23SW MTP         1800                                 N/A           3/16
HUDSON CANYON    1800            50 55  260/ 12/ 16 1023.3          4/15
EXECUTION ROCKS  1800            50 42  180/  6/  6   N/A
WESTERN LI SOUND 1700            46     200/  4/  6   N/A           0
CENTRAL LI SOUND 1700            44 44  280/  6/  8   N/A           0
EASTERN LI SOUND NOT AVBL
ROBBINS REEF     1800            50                 1021.7
$$


>>>>>>>>>>>>>>>>>>>>>>>>>>>> KEY <<<<<<<<<<<<<<<<<<<<<<<<<<<
>                                                          <
>     SKY/WX - SKY CONDITION/PRESENT WEATHER               <
>     TMP    - TEMPERATURE IN FAHRENHEIT                   <
>     DP     - DEWPOINT IN FAHRENHEIT                      <
>     RH     - RELATIVE HUMIDITY IN PERCENT                <
>     WIND   - DIRECTION AND SPEED IN MPH                  <
>     PRES   - MEAN SEA LEVEL PRESSURE IN INCHES OF HG     <
>     WCI    - WIND CHILL INDEX                            <
>     VSB    - VISIBILITY IN MILES                         <
>     HX     - HEAT INDEX                                  <
>     TC     - TEMPERATURE IN CELSIUS                      <
>     VRB    - VARIABLE WIND DIRECTION                     <
>                                                          <
>>>>>>>>>>>>>>>>>>>>>>>>>>>> KEY <<<<<<<<<<<<<<<<<<<<<<<<<<<




USA.gov is the U.S. government's official web portal to all federal, state and local government web resources and services.